This is the latest recevied weather packets stored in our database for station/object MIDVIL-WX. If no packets are shown the sender has not sent any weather packets the latest 10 day(s).
| Time | Temp. | Humidity | Pressure | Rain* | Wind** | Luminosity | Snow |
|---|---|---|---|---|---|---|---|
| 1778103925 | 11.11° C | 34% | 987.7 hPa | 0 mm | - | - | - |
| 1778103045 | 11.67° C | 32% | 987.8 hPa | 0 mm | - | - | - |
| 1778102125 | 11.67° C | 32% | 987.8 hPa | 0 mm | - | - | - |
| 1778101255 | 11.67° C | 32% | 987.8 hPa | 0 mm | - | - | - |
| 1778100327 | 11.67° C | 34% | 987.6 hPa | 0 mm | - | - | - |
| 1778099445 | 11.67° C | 34% | 987.1 hPa | 0 mm | - | - | - |
| 1778098531 | 11.67° C | 34% | 987.1 hPa | 0 mm | - | - | - |
| 1778097656 | 11.67° C | 34% | 986.6 hPa | 0 mm | - | - | - |
| 1778096731 | 11.67° C | 34% | 987.1 hPa | 0 mm | - | - | - |
| 1778095847 | 11.67° C | 34% | 987.1 hPa | 0 mm | - | - | - |
| 1778094931 | 11.67° C | 34% | 987.1 hPa | 0 mm | - | - | - |
| 1778094052 | 11.67° C | 34% | 987.1 hPa | 0 mm | - | - | - |
| 1778093131 | 11.67° C | 36% | 986.8 hPa | 0 mm | - | - | - |
| 1778092242 | 12.22° C | 34% | 986.8 hPa | 0 mm | - | - | - |
| 1778091330 | 11.67° C | 34% | 986.8 hPa | 0 mm | - | - | - |
| 1778090457 | 11.67° C | 34% | 986.8 hPa | 0 mm | - | - | - |
| 1778089528 | 11.67° C | 38% | 987 hPa | 0 mm | - | - | - |
| 1778088648 | 11.67° C | 35% | 987.6 hPa | 0 mm | - | - | - |
| 1778087731 | 11.67° C | 35% | 987.6 hPa | 0 mm | - | - | - |
| 1778086856 | 11.67° C | 35% | 987.6 hPa | 0 mm | - | - | - |
| 1778085931 | 11.67° C | 40% | 987 hPa | 0 mm | - | - | - |
| 1778085043 | 11.11° C | 40% | 986.9 hPa | 0 mm | - | - | - |
| 1778084131 | 10.56° C | 40% | 986.9 hPa | 0 mm | - | - | - |
| 1778083256 | 10.56° C | 40% | 986.9 hPa | 0 mm | - | - | - |
| 1778082330 | 10° C | 46% | 987.5 hPa | 0 mm | - | - | - |
* Rain latest hour (hover to see other rain measurements)
** Current wind speed in m/s (hover to see current wind gust speed)